Location: Unspecified
(0.0000°N, 0.0000°E)
Time: 21:24:42
(UTC+00:00)

Tiros 1 - Pass Details

Date: 25 October 2021
Orbit: 630 x 664 km, 48.4° (Epoch: 04 December)

Event Time Altitude Azimuth Distance (km) Brightness Sun altitude
Rises 07:33:19 0° 246° (WSW) 2,986 10.1 26.6°
Reaches altitude 10° 07:36:12 10° 263° (W) 2,073 9.3 27.3°
Maximum altitude 07:39:40 20° 310° (NW) 1,521 8.7 28.2°
Drops below altitude 10° 07:43:09 10° 356° (N) 2,067 9.7 29.0°
Sets 07:46:02 0° 14° (NNE) 2,973 10.6 29.7°
